This demonstration page uses our WeatherBlox Daily Observations layout. Learn more.

41.55636, -103.73856

Hourly Observations for August 3, 2018

Temp ( °F °C ) Dew Point ( °F °C ) Humidity (%) Winds ( mph kmh ) Pressure ( in mb ) Visibility ( mi km ) Precip ( " mm )
12:58 am 00:58 Mostly Cloudy 66 19 52 11 60 60 NW 9 15 29.85 1011 10 16.09344 0 0
1:58 am 01:58 Mostly Cloudy 67 19.6 51 10.3 55 55 NNW 5 7 29.83 1010 10 16.09344 0 0
2:58 am 02:58 Mostly Cloudy 65 18.2 53 11.4 65 65 NNW 9 15 29.83 1010 10 16.09344 0 0
3:58 am 03:58 Mostly Cloudy 66 18.7 53 11.8 64 64 NW 7 11 29.83 1010 10 16.09344 0 0
4:58 am 04:58 Cloudy 70 21 49 9.6 48 48 N 18 30 29.83 1010 10 16.09344 0 0
5:58 am 05:58 Mostly Cloudy 68 20 50 10 53 53 NNW 12 19 29.83 1010 10 16.09344 0 0
6:58 am 06:58 Mostly Cloudy 69 20.5 49 9.6 50 50 N 16 26 29.85 1011 10 16.09344 0 0
7:58 am 07:58 Cloudy with Light Showers 67 19.7 55 12.8 65 65 NW 7 11 29.85 1011 10 16.09344 0 0
8:58 am 08:58 Mostly Cloudy 71 21.4 52 11.1 52 52 NW 15 24 29.88 1012 10 16.09344 0 0
9:58 am 09:58 Partly Cloudy 71 21.5 54 12.3 56 56 WNW 17 28 29.91 1013 10 16.09344 0 0
10:58 am 10:58 Mostly Cloudy with Light Showers 68 19.8 56 13.1 65 65 NW 17 28 29.91 1013 10 16.09344 0 0
11:58 am 11:58 Mostly Cloudy 70 20.9 54 12.1 57 57 NNW 9 15 29.91 1013 10 16.09344 0 0
12:58 pm 12:58 Mostly Cloudy 73 22.6 57 14.1 59 59 WSW 12 19 29.91 1013 10 16.09344 0 0
1:58 pm 13:58 Mostly Cloudy 76 24.6 54 12.4 47 47 W 7 11 29.88 1012 10 16.09344 0 0
2:58 pm 14:58 Sunny 75 23.8 56 13.5 53 53 SSW 10 17 29.88 1012 10 16.09344 0 0
3:58 pm 15:58 Sunny 76 24.7 52 11.3 43 43 SW 10 17 29.85 1011 10 16.09344 0 0
4:58 pm 16:58 Sunny 76 24.4 51 10.7 42 42 SW 14 22 29.83 1010 10 16.09344 0 0
5:58 pm 17:58 Sunny 76 24.6 54 12.1 46 46 SW 15 24 29.8 1009 10 16.09344 0 0
6:58 pm 18:58 Sunny 75 23.8 54 12.1 48 48 SW 15 24 29.8 1009 10 16.09344 0 0
7:58 pm 19:58 Mostly Sunny 70 21.2 55 12.7 58 58 WSW 13 20 29.83 1010 10 16.09344 0 0
8:58 pm 20:58 Mostly Cloudy 67 19.6 50 9.8 53 53 W 7 11 29.8 1009 10 16.09344 0 0
9:58 pm 21:58 Mostly Cloudy 69 20.3 47 8.4 46 46 W 20 31 29.83 1010 10 16.09344 0 0
10:58 pm 22:58 Mostly Clear 67 19.5 50 9.8 54 54 W 17 28 29.8 1009 10 16.09344 0 0
11:58 pm 23:58 Clear 63 17 49 9.5 62 62 W 9 15 29.83 1010 10 16.09344 0 0

Powered by AerisWeather